SL-8 R/B

Satellite information

Favourite Embed

Satellite Type and Status

ROCKET BODYIN ORBIT

Key statistics

Satellite SL-8 R/B at a glance.

Uptime

13470

Days in orbit

Revolutions

≈ 14.4

Per day

Orbit

LEO

Low Earth Orbit

Inclination

74.0

Latest

Satellite identification and parameters

Extended collection of information and parameters for SL-8 R/B.

Object identification

Identified? True

Debris? False

Object name: SL-8 R/B

International designator: 1988-053B

Object number (NORAD): 19257

Object ID (CCSDS): 19257

Country: COMMONWEALTH OF INDEPENDENT STATES (CIS)

Current information (Y/N): Y

RCS size: LARGE

Orbital parameters

Period: 100.09 minutes

Inclination: 74.0468 deg

SMA: 7140.912 km

Apoapsis: 777.559 km

Periapsis: 747.995 km

RAAN: 316.0437 deg

Eccentricy: 0.00207

Argument of periapsis: 214.3949 deg

Mean anomaly: 261.477 deg

Mean motion: 14.38706584 rev/day

Mean motion (dot): 0.00000292 rev/day2

B* drag term: 0.00010353 1/REarth

Two-line elements (TLE)

Creation date: May 8, 2025, 3:01 a.m.

Reference frame: TEME

Reference center: EARTH

Epoch: May 7, 2025, 8:57 p.m. UTC

TLE line 0: 0 SL-8 R/B

TLE line 1: 1 19257U 88053B 25127.87311200 .00000292 00000-0 10353-3 0 9995

TLE line 2: 2 19257 74.0468 316.0437 0020700 214.3949 261.4770 14.38706584932614

Live tracking on map

Real-time ground track for satellite SL-8 R/B.

In-orbit conjunctions

A list of the most updated potential collisions computed for object SL-8 R/B.

Target Orbit TCA Probability of collision Miss distance Type
FENGYUN 1C DEB SSO 2025-04-04 09:26:26 0.0001127108 247.0 (m) DEBRIS
CZ-6A DEB LEO 2025-01-02 13:33:14 0.0001368345 632.0 (m) DEBRIS
COSMOS 2251 DEB LEO 2024-08-27 00:10:07 0.0001113722 786.0 (m) DEBRIS
THOR ABLESTAR DEB LEO 2024-08-10 06:23:36 0.0001038186 926.0 (m) DEBRIS
CZ-2C DEB SSO 2024-06-17 04:33:21 0.0001248866 233.0 (m) DEBRIS

Associated space launch

Military communications satellite

SL-8 R/B was lifted into orbit during the mission ‘Kosmos-3M | Strela-2M 45’, on board a Kosmos-3M space rocket.

The launch took place on June 21, 1988, 4:26 p.m. from 133/3 (133L).

For more information about the launch, click the button.

Launch to space Kosmos-3M | Strela-2M 45
Kosmos-3M | Strela-2M 45

Agency: N/A

Status: Launch Successful

Launch date: June 21, 1988, 4:26 p.m. UTC

Rocket: Kosmos-3M

Launch pad: 133/3 (133L)

Location: Plesetsk Cosmodrome, Russian Federation

...

Latest news about this satellite

There are no fresh news available about this satellite. Check back as we update our databases every day.


Newsletter sign-up

Weekly statistics, charts and insights to help you stay on top of the space industry.